Theta_e
291 291 291 291 291 291 291 291 291 291 290 290 290 289 289 290 290 290 290 289 287 287 288 289 289 292 293 295 298 295 293 290 283 284 286 286 285 286 288 290 291 291 292
289 289 289 290 290 289 289 289 290 289 290 289 289 289 288 287 288 288 288 288 286 285 285 286 287 290 290 291 293 294 290 289 285 282 285 285 284 285 286 288 289 290 290
287 288 288 288 288 287 287 287 288 288 288 288 288 287 287 287 286 287 287 287 287 286 285 284 285 286 288 290 291 291 292 290 288 285 284 285 284 285 284 285 285 286 288
286 286 286 286 286 286 286 286 286 286 286 287 287 287 286 286 286 286 286 286 286 286 286 285 284 284 285 288 289 289 289 288 288 286 283 282 283 284 284 282 282 283 282
285 285 285 286 286 286 285 285 285 285 285 285 285 286 286 286 284 284 285 284 284 284 285 286 285 284 285 286 288 288 288 286 284 282 281 281 281 281 282 283 281 280 280
284 284 285 285 285 284 284 284 284 284 284 283 283 284 284 285 287 285 284 283 283 282 282 283 285 284 284 285 286 287 289 287 284 283 282 281 281 282 282 280 279 278 276
283 283 283 284 283 283 283 283 283 283 283 282 282 283 283 284 287 287 284 283 281 281 282 283 284 285 284 283 284 285 284 286 288 286 283 282 282 283 282 279 279 279 277
282 282 282 283 282 283 283 282 283 283 282 282 282 282 283 284 287 286 285 283 282 281 282 282 284 284 284 282 281 281 281 283 284 283 284 285 285 285 283 282 281 276 276
281 281 281 282 281 281 281 281 282 282 282 282 282 282 282 283 285 285 284 283 281 281 282 282 284 285 285 283 280 278 277 277 281 283 284 284 284 284 283 280 277 277 275
280 280 281 281 281 280 281 281 282 282 281 282 282 282 282 282 283 285 283 282 280 280 281 281 282 284 284 283 281 279 276 276 277 278 277 277 277 278 279 281 279 278 275
279 278 278 279 279 280 280 281 281 281 281 281 281 281 281 282 282 284 284 282 280 279 279 278 280 282 283 282 280 278 276 276 276 276 275 275 275 274 274 275 275 277 276
278 277 276 277 278 279 279 280 280 280 280 279 279 280 280 281 282 283 283 283 282 280 278 278 279 279 280 280 279 277 277 276 276 275 274 273 272 272 271 272 272 272 272
275 274 274 275 277 278 278 279 279 280 279 278 278 278 279 280 281 282 282 282 282 280 279 278 278 277 276 275 276 276 275 275 275 274 272 271 270 271 271 272 270 269 268
274 273 273 274 275 276 278 279 280 279 279 278 279 278 279 279 279 280 281 281 281 281 279 277 276 275 275 274 272 272 272 272 273 273 272 271 272 272 271 271 273 272 274
274 273 274 274 275 275 276 278 279 279 279 278 278 278 278 277 278 280 280 280 280 280 278 277 275 274 273 272 272 270 270 271 271 271 272 272 272 272 270 270 270 273 272
274 273 274 273 273 274 276 277 280 279 279 279 279 279 279 278 278 279 279 278 278 278 275 273 272 272 270 270 270 270 269 268 267 270 271 271 271 271 271 271 271 271 271
275 273 272 272 273 273 274 275 274 276 277 277 277 278 278 277 277 277 277 275 275 274 272 271 270 270 269 269 269 268 267 265 265 268 268 268 269 269 271 270 270 271 269
275 272 273 273 272 272 273 273 274 274 273 272 273 275 276 275 275 274 274 273 270 270 269 269 269 269 269 268 268 267 267 267 267 266 266 265 266 268 270 269 268 268 269
273 272 272 271 271 270 271 271 271 271 271 271 270 270 268 273 272 271 271 268 268 267 267 267 267 267 267 267 267 267 266 265 264 265 264 264 264 266 265 265 264 259 262
273 270 270 269 267 269 270 269 269 269 269 270 270 269 269 269 268 266 265 266 266 266 266 266 266 266 266 267 267 267 268 267 266 265 264 263 263 264 264 264 264 266 265
271 268 269 269 268 269 269 269 269 269 268 269 268 268 268 268 266 265 265 264 264 265 265 265 266 266 266 266 266 267 266 266 264 264 264 263 261 263 261 261 262 261 261
271 269 268 269 268 268 268 268 268 268 268 268 267 268 266 266 265 265 265 264 263 263 263 264 265 265 264 264 264 266 265 265 264 264 263 261 262 261 261 261 261 261 261
271 269 269 267 267 266 265 267 267 268 268 268 266 266 265 265 265 265 265 263 263 263 263 263 264 263 263 263 263 263 263 263 262 261 263 262 262 262 261 262 260 261 261
271 269 268 267 266 266 267 266 267 265 267 267 266 266 266 264 265 264 263 263 263 263 262 261 261 261 261 262 263 262 262 261 261 261 260 262 261 260 260 260 260 258 259
271 270 268 267 266 267 266 267 267 267 266 267 266 266 265 264 264 264 263 262 261 263 262 260 260 260 260 259 260 260 260 257 258 256 260 261 260 259 259 260 259 259 258
271 270 269 268 267 267 267 267 267 266 266 266 267 266 265 265 265 264 263 262 262 262 262 261 261 260 260 261 261 261 262 262 259 255 260 261 261 260 260 259 259 260 259
Wind_Speed
10 11 11 11 12 12 12 13 14 14 15 16 15 15 16 16 16 15 14 15 15 14 14 13 14 12 9 8 5 5 6 8 10 5 2 4 5 8 8 10 11 11 11
9 9 10 10 12 12 13 13 13 14 14 15 15 15 16 16 16 15 14 14 15 15 15 15 15 11 11 10 7 5 8 8 11 12 4 3 6 6 8 10 9 9 8
8 9 9 10 12 12 12 13 13 13 13 14 15 16 16 16 15 15 14 14 14 14 14 15 15 15 12 8 7 7 5 8 8 9 7 3 3 3 8 10 10 9 7
7 8 9 10 10 10 11 12 13 13 13 14 14 14 15 16 16 15 15 14 14 13 14 13 14 14 13 11 7 7 5 4 8 7 7 5 4 3 6 8 8 7 7
6 7 8 8 8 10 11 11 12 13 13 13 14 14 14 13 12 16 14 13 13 13 13 13 13 11 18 18 7 7 5 5 6 7 7 5 4 3 7 5 8 7 5
6 7 7 7 8 10 9 10 11 12 13 13 14 14 14 10 20 18 15 13 13 13 12 12 12 13 12 17 19 20 10 5 7 5 6 7 5 5 6 6 7 6 3
6 6 5 6 7 7 8 9 11 12 11 13 14 14 14 13 24 17 14 12 11 12 12 12 11 9 11 10 13 16 17 17 10 4 8 7 9 9 10 9 8 5 3
5 5 5 6 7 8 8 10 10 9 10 11 12 12 12 12 22 21 13 11 11 12 12 14 13 9 12 9 9 11 13 14 11 6 7 5 4 6 7 6 7 7 7
6 5 5 5 7 8 9 10 8 8 9 10 10 12 13 13 22 20 15 10 11 12 11 13 16 9 13 13 8 8 9 9 13 21 20 17 14 10 7 7 5 5 3
6 6 5 6 8 8 8 8 7 7 8 8 9 10 11 13 19 20 15 9 10 9 11 12 20 16 18 16 9 7 8 7 6 7 8 11 12 12 14 6 4 3 3
7 7 6 6 7 7 8 6 7 7 7 9 8 9 11 12 15 21 20 10 9 9 9 9 9 19 17 17 15 10 8 6 8 6 6 6 7 8 7 7 7 3 2
8 8 6 5 5 6 6 6 7 7 8 8 7 7 8 11 17 17 18 16 13 9 9 8 9 17 16 18 11 13 12 9 6 6 6 7 7 7 7 7 9 9 9
7 7 6 6 5 5 6 6 6 6 6 6 5 5 6 8 8 16 17 16 13 6 7 9 12 15 14 11 17 15 10 6 6 7 7 6 5 4 2 4 6 8 9
10 8 5 6 6 5 4 4 5 6 6 5 5 5 6 7 9 9 8 8 10 3 6 6 8 9 11 9 8 10 7 7 6 6 5 4 3 3 4 5 3 4 4
8 7 7 5 5 5 5 5 5 6 5 4 4 5 6 6 8 10 10 8 7 7 4 5 6 7 7 7 7 7 7 7 6 4 4 4 4 4 3 4 3 3 5
10 6 6 6 5 5 6 6 10 9 8 9 8 6 4 8 11 12 13 15 12 9 5 6 6 6 7 7 6 6 7 6 5 4 3 3 4 4 3 3 3 4 4
10 8 6 6 5 5 5 6 7 6 7 10 7 9 9 8 10 11 10 14 16 9 7 6 6 6 6 6 6 6 5 5 5 4 3 3 3 2 1 2 3 3 3
9 10 7 6 6 5 5 5 5 5 4 2 7 6 9 8 10 12 10 9 6 7 6 5 5 5 5 5 5 5 5 5 5 4 4 3 3 2 2 3 3 2 2
10 7 7 6 5 5 5 5 5 4 2 1 1 3 6 9 11 12 15 8 6 5 5 4 4 4 4 4 4 3 4 4 4 4 4 4 3 2 2 2 2 3 2
8 12 8 7 6 5 5 5 5 4 3 1 2 2 1 1 3 4 5 6 5 4 3 4 4 3 3 3 3 3 3 4 4 3 3 3 3 4 2 2 2 2 3
8 8 10 7 7 6 6 6 6 5 4 3 2 1 5 4 3 2 2 3 4 3 3 3 3 3 4 3 3 3 3 3 3 2 3 2 2 2 3 3 2 2 2
9 9 8 7 7 7 6 6 6 5 4 4 3 2 6 3 3 1 1 2 3 2 1 2 2 3 3 4 4 4 4 4 3 3 2 2 1 2 1 2 2 2 2
10 10 9 7 7 8 6 6 6 5 5 4 4 3 3 3 2 3 1 1 2 2 1 1 2 2 2 2 3 3 4 4 4 3 3 2 1 2 2 2 2 2 2
11 12 11 8 8 8 7 7 6 6 5 5 5 4 4 4 3 3 2 2 2 2 1 1 0 1 2 2 2 2 2 2 2 2 3 2 1 1 1 2 2 2 1
12 11 11 10 9 8 8 8 7 7 7 6 6 5 5 5 5 4 3 3 2 2 3 1 1 1 0 1 1 3 3 3 2 2 1 1 2 2 1 2 1 2 2
11 12 11 10 9 9 8 8 9 8 8 7 7 6 6 6 6 5 5 4 3 3 3 2 3 3 3 3 2 3 3 0 0 1 1 1 1 2 1 2 2 2 2
Wind_Direction
30 31 31 30 34 35 33 32 30 29 25 26 27 25 24 23 21 22 23 21 25 19 15 13 8 5 4 2 25 47 95 111 113 96 58 56 55 79 85 84 85 83 81
31 34 39 34 37 39 34 32 28 29 31 30 28 30 28 23 20 22 22 21 22 21 17 19 16 6 8 3 4 78 102 109 122 117 110 85 67 59 81 91 92 87 95
35 40 44 42 41 40 37 33 33 30 31 34 32 30 26 24 21 19 19 20 24 25 20 18 14 13 11 8 14 29 109 126 128 137 129 104 88 88 91 87 81 81 96
48 50 44 44 45 44 40 36 34 31 32 33 35 35 32 27 21 17 16 18 21 18 21 23 19 16 6 6 28 42 64 84 118 112 111 111 104 101 107 112 101 97 98
61 53 47 40 45 45 43 41 41 38 35 32 28 32 26 28 28 18 15 19 17 15 17 15 24 14 15 23 20 38 77 95 101 111 113 116 121 127 132 126 124 120 93
76 62 49 44 47 46 42 40 43 43 39 36 33 25 25 19 20 25 19 17 16 15 14 12 13 16 20 31 38 43 45 102 121 130 132 141 134 142 139 142 140 142 143
91 75 64 56 60 55 51 49 45 42 39 36 33 27 26 19 7 19 23 21 20 17 12 4 1 17 16 21 36 50 47 51 53 110 141 154 163 162 158 151 159 157 114
101 87 69 63 64 58 53 50 47 41 39 38 31 30 31 21 21 25 26 20 24 18 10 10 1 18 26 25 35 49 49 41 36 54 78 90 114 138 160 157 137 107 99
118 101 80 73 71 64 57 52 47 46 42 46 38 35 29 28 20 27 19 20 24 18 13 8 0 27 26 23 42 55 59 52 47 55 59 68 75 90 119 127 132 136 119
139 113 94 76 77 74 63 58 57 57 47 50 48 40 35 31 22 23 26 23 19 21 16 9 9 18 32 28 31 42 55 43 56 64 57 56 58 60 54 47 130 141 118
131 113 95 86 83 80 79 68 64 61 57 56 54 42 43 33 28 25 24 28 18 19 19 12 8 5 23 30 35 39 43 54 59 63 66 65 59 54 51 48 44 66 117
130 113 99 93 93 94 99 84 68 67 66 56 46 44 40 37 33 27 20 24 23 25 18 14 16 13 17 28 34 45 54 63 61 66 65 58 61 57 54 57 59 64 56
124 114 111 101 96 99 103 94 79 67 63 60 51 38 35 34 32 22 15 11 18 33 26 19 27 30 25 22 27 30 32 46 58 63 64 59 49 40 55 79 82 88 76
128 127 126 112 110 100 96 88 80 63 56 47 55 38 22 27 21 15 11 3 356 45 31 22 24 32 40 37 24 26 28 35 53 63 67 56 30 31 36 10 37 28 63
127 132 124 118 121 118 90 94 87 66 66 66 52 40 11 15 19 18 23 11 358 65 46 30 23 19 22 17 27 27 26 28 41 37 58 66 52 41 39 7 19 36 63
135 143 142 136 137 143 131 114 87 85 77 70 48 53 36 23 28 42 48 32 22 35 51 35 30 24 22 14 14 17 22 21 23 23 34 42 55 50 47 47 47 42 62
136 143 141 139 148 150 153 153 133 101 82 66 51 72 55 35 32 58 68 56 41 43 53 45 41 26 20 22 16 17 12 12 335 22 46 36 36 56 15 53 61 56 65
128 140 145 145 147 146 146 140 136 153 162 122 45 55 64 46 43 52 79 67 49 41 45 35 37 28 21 18 18 15 10 4 11 12 26 23 20 19 30 39 33 24 55
140 146 144 138 142 136 136 130 115 119 116 94 178 84 29 62 49 41 62 75 61 47 28 38 21 21 23 16 12 15 15 24 14 13 12 4 7 357 62 43 60 29 337
138 140 142 144 145 146 148 140 129 136 157 184 126 77 59 299 52 21 46 72 71 53 31 21 18 8 15 14 7 1 14 24 21 31 26 18 4 349 44 59 21 9 29
144 145 147 145 156 159 164 157 146 151 163 164 131 151 97 105 92 40 52 77 83 56 35 16 5 4 351 1 5 13 10 19 25 29 26 35 12 29 16 24 47 54 28
150 150 154 159 155 160 172 159 150 152 165 160 182 130 103 105 117 110 60 81 92 78 351 342 358 2 358 349 354 0 5 5 5 1 34 31 42 65 42 28 9 18 24
148 151 154 155 160 151 163 168 154 156 171 169 173 175 158 132 144 130 224 194 126 110 35 318 360 358 359 347 351 359 357 1 352 337 341 10 33 39 20 43 25 18 38
152 156 157 157 160 169 172 175 166 156 172 177 178 192 166 151 179 164 203 235 181 138 141 257 324 12 338 345 357 352 357 339 332 329 324 336 36 93 58 60 43 57 77
157 158 161 164 167 172 169 175 172 168 176 192 185 188 185 173 173 186 180 240 235 170 137 203 247 190 237 300 333 323 332 17 341 342 310 358 90 90 80 83 87 78 44
162 164 161 161 168 174 175 178 177 180 180 197 192 185 195 195 175 176 173 201 229 205 173 163 225 221 229 252 250 271 277 129 256 260 317 128 138 121 112 96 90 90 100